Погода в Сортавале

Хотите узнать прогноз погоды в Сортавале? Тогда Вам сюда: Погода в Сортавале

Поиск расширенной информации на нашем сайте:

Полезная информация:

Новости сайта



02.01.2020
Опубликован Долгосрочный прогноз погоды по городам России и ближнего зарубежья на январь 2020 года.
Карты: Прогноз на январь и февраль 2020 года, Сравнение прогнозируемой аномалии приземной температуры воздуха на январь 2020 года по разным моделям.




Погода в Сортавале - сегодня

Время (UTC), дата Ветер
(°,м/с) 
Видим.   Явления Облачность Т
(°С)
Тd
(°С)
f(%) Тe
(°С)
Pmin
(гПа)
dP
(гПа)
Po
(мм)
O2
(г/м3)
Тmin Tmax R s Состояние
почвы
09 19.09.20 300 (СЗ) 5{10}  20000 м    9/8 960 м средняя 
[Sc|Ac trans]
+11.1 +4.7 65 +10  1009.7  0.4  756  292           
12 19.09.20 300 (СЗ) 4{10}  20000 м    8/6 600 м средняя 
[Sc|Ac trans]
+12.1 +3.7 56 +12  1010.5  0.8  756  291           
15 19.09.20 290 (З) 3{14}  20000 м  {ливн. осадки}  6/3 300 м кучево-дожд., средняя 
[Cb cap|Ac trans]
+11.3 +4.5 63 +11  1011.4  0.9  757  292      0.5     
18 19.09.20 310 (СЗ) 50000 м  {ливн. осадки}  4/0 средняя 
[Ac trans]
+8.8 +4.6 75 +9  1012.8  1.4  758  295    +13.4  0.5     
21 19.09.20 290 (З) 50000 м    ясно 
+6.8 +3.5 79 +7  1014.3  1.5  759  298           
00 20.09.20 300 (СЗ) 50000 м    ясно 
+5.4 +3.2 86 +5  1015.2  0.9  760  300           
03 20.09.20 270 (З) 50000 м    4/0 верхняя 
[Ci fib]
+4.1 +2.9 92 +5  1015.8  0.6  760  301  +4         
06 20.09.20 280 (З) 20000 м    9/3 600 м верхняя 
[Sc|Cs]
+5.9 +4.3 89 +7  1016.2  0.4  760  299  +3.1        влажная 
09 20.09.20 250 (З) 20000 м    9/3 600 м средняя, верхняя 
[Sc|Ac trans|Cs]
+10.9 +4.7 66 +11  1015.6  -0.6  760  294           
12 20.09.20 260 (З) 20000 м    9/3 600 м средняя, верхняя 
[Sc|Ac trans|Ci fib]
+12.7 +3.8 55 +13  1013.2  -2.4  758  291           
15 20.09.20 240 (ЮЗ) 20000 м    9/1 1000 м средняя, верхняя 
[Sc|Ac trans|Cs]
+11.8 +5.7 66 +12  1010.9  -2.3  756  291           
18 20.09.20 240 (ЮЗ) 50000 м    9/4 1000 м средняя, верхняя 
[Sc|Ac As|Cs]
+11.2 +6.3 72 +11  1008.2  -2.7  754  291    +13.8       
21 20.09.20 260 (З) 50000 м    10/3 600 м средняя 
[Sc|Ac und]
+11.7 +7 73 +11  1006.9  -1.3  753  290           
00 21.09.20 240 (ЮЗ) 11000 м  слаб. ливневой дождь  10/6 600 м кучево-дожд., средняя 
[Cb cap|Ac und]
+10.2 +7.7 84 +10  1006.6  -0.3  753  291           
03 21.09.20 250 (З) 50000 м  {ливн. осадки}  1/0 верхняя 
[Ci fib]
+8.1 +6 87 +9  1007.3  0.7  754  294  +8    0.4     
06 21.09.20 270 (З) 20000 м  {ливн. осадки}  9/3 600 м средняя, верхняя 
[Sc|Ac trans|Ci sp]
+10.3 +6.8 79 +10  1007.6  0.3  754  292  +7.5    0.4    влажная 
09 21.09.20 260 (З) 20000 м    10/0 средняя 
[Ac As]
+10.8 +5.7 71 +11  1007.6  754  291           
12 21.09.20 260 (З) 20000 м    9/0 средняя, верхняя 
[Ac trans|Ci sp]
+12.4 +5.2 61 +12  1007.1  -0.4  754  290           
15 21.09.20 210 (ЮЗ) 20000 м    10/0 средняя 
[Ac As]
+11.9 +6.3 69 +12  1005.1  -2  752  289           
18 21.09.20 210 (ЮЗ) 50000 м    10/0 средняя 
[Ac As]
+12.3 +7.8 74 +12  1000.6  -4.5  749  287    +13       
21 21.09.20 250 (З) 50000 м    10/0 средняя 
[Ac As]
+13.1 +9.7 80 +15  998.5  -2.1  747  286           
00 22.09.20 250 (З) 50000 м    10/0 средняя 
[Ac As]
+13.4 +10 80 +15  997.8  -0.7  747  285           
03 22.09.20 240 (ЮЗ) 50000 м    9/0 средняя, верхняя 
[Ac trans|Ci fib]
+12.9 +10.1 83 +14  998.2  0.4  747  286  +11.6         
06 22.09.20 240 (ЮЗ) 20000 м    9/3 1000 м средняя, верхняя 
[Sc|Ac trans|Ci fib]
+13.5 +10 79 +15  999.1  0.9  748  285  +12.2        влажная 
09 22.09.20 260 (З) 20000 м    9/4 600 м средняя, верхняя 
[Sc|Ac trans|Ci sp]
+15.9 +9.6 66 +17  1000  0.9  748  283           
Время (UTC), дата Ветер
(°,м/с) 
Видим.   Явления Облачность Т
(°С)
Тd
(°С)
f(%) Тe
(°С)
Pmin
(гПа)
dP
(гПа)
Po
(мм)
O2
(г/м3)
Тmin Tmax R s Состояние
почвы

Для получения пояснительной информации подведите курсор к названию столбца.

ПОГОДА в Сортавале - архив

Всё, что Вы хотите узнать о погоде в Сортавале - удобно и подробно!

Выберите нужную дату (начиная с 1 января 2019* года) и нажмите кнопку "Найти".
Будут отображены архивные сводки погоды по пункту Сортавала, начиная с указанной даты.


Отображать данные в формате CSV (для использования в таблицах Excel)


Внимание! Наш архив погоды предназначен исключительно для личного некоммерческого использования в познавательных целях. Если Вам необходимы официальные справки о состоянии погоды (для производственных, юридических, коммерческих и т.п. целей), обращайтесь в органы Росгидромета.

*Примечание: данная дата относится к архиву по метеостанциям СССР (Россия, СНГ, Балтия).
Архив по метеостанциям Зарубежной Европы и Азии (кроме Китая) хранится 10 дней, по другим регионам земного шара (Китай, Африка, Америка, Австралия, Океания) - 1 день.

Сортавала - район местоположения метеостанции


Название, широта, долгота, высота метеостанции:
Сортавала 61.7°ш. 30.7°д. 19 м над ур. моря [Российская Федерация]

Дополнительная информация

В oтличие oт бoльшинства пoгoдных сайтoв мы публикуем пoдрoбную метеoинфoрмацию в детальнoм прoфессиoнальнoм фoрмате.

Характеристики температуры и влажнoсти вoздуха измеряются на высoте 2 м в тени вдали oт зданий и деревьев.
Скoрoсть ветра измеряется на высoте 10 м (на урoвне рoста челoвека скoрoсть ветра ниже в 1.5-2 раза). Если метеoстанция нахoдится в гoрoде или в лесу, тo скoрoсть ветра занижена на 2-4 м/с пo сравнению с oткрытым местoм. Скoрoсть ветра над акватoриями крупных рек и oзёр, а также на вершинах хoлмoв на 2-5 м/с выше, чем в oбычных услoвиях.
Атмoсфернoе давление в разных тoчках местнoсти мoжет значительнo oтличаться oт давления на метеoстанции, в зависимoсти oт услoвий рельефа (при пoдъёме на 10 м давление пoнижается примернo на 1 мм рт.ст.).